Worcester, MA

7:25 PM EDT on March 29, 2017 (GMT -0400)
Worcester Regional

Weather History for KORH - October, 2013

Change the Weather History Date:

Friday, October 4, 2013

  Actual Average Record
Temperature  
Mean Temperature 59 °F 54 °F  
Max Temperature 65 °F 63 °F 85 °F (1931)
Min Temperature 53 °F 46 °F 27 °F (1945)
Degree Days  
Heating Degree Days 6 11  
Month to date heating degree days 11 42  
Since 1 July heating degree days 200 235  
Cooling Degree Days 0 0  
Month to date cooling degree days 1 0  
Year to date cooling degree days 572 468  
Growing Degree Days 8 (Base 50)    
Moisture  
Dew Point 52 °F    
Average Humidity 78    
Maximum Humidity 100    
Minimum Humidity 56    
Precipitation  
Precipitation 0.36 in 0.16 in 1.89 in (1987)
Month to date precipitation 0.36 0.63  
Year to date precipitation 36.61 35.92  
Snow  
Snow 0.00 in 0.00 in T in (1965)
Month to date snowfall 0.0 0.0  
Since 1 July snowfall 0.0 0.0  
Since 1 September snowfall 0.0 0.0  
Snow Depth -    
Sea Level Pressure  
Sea Level Pressure 30.08 in    
Wind  
Wind Speed 3 mph (North)    
Max Wind Speed 18 mph    
Max Gust Speed 26 mph    
Visibility 9 miles    
Events Rain    
T = Trace of Precipitation, MM = Missing Value Source: NWS Daily Summary

Daily Weather History Graph

Daily Weather History Graph

Search for Another Location

Airport or City:

Trip Planner

Search our weather history database for the weather conditions in past years. The results will help you decide how hot, cold, wet, or windy it might be!

Date:

Astronomy

Oct. 04, 2013 Rise Set
Actual Time 6:48 AM EDT 6:23 PM EDT
Civil Twilight 6:20 AM EDT 6:51 PM EDT
Nautical Twilight 5:47 AM EDT 7:23 PM EDT
Astronomical Twilight 5:14 AM EDT 7:56 PM EDT
Moon 6:20 AM EDT (10/4) 6:03 PM EDT (10/4)
Length of Visible Light 12h 31m
Length of Day
11h 35m
Waning Crescent, 0% of the Moon is Illuminated
Oct 4
Waning Crescent
Oct 4
New
Oct 11
First Quarter
Oct 18
Full
Oct 26
Last Quarter

Hourly Weather History & Observations

Time (EDT) Temp. Dew Point Humidity Pressure Visibility Wind Dir Wind Speed Gust Speed Precip Events Conditions
12:54 AM 59.0 °F 44.1 °F 58% 30.08 in 10.0 mi NW 9.2 mph - N/A   Clear
1:54 AM 57.9 °F 42.1 °F 56% 30.08 in 10.0 mi NW 6.9 mph - N/A   Clear
2:54 AM 55.9 °F 44.1 °F 64% 30.07 in 10.0 mi West 6.9 mph - N/A   Scattered Clouds
3:54 AM 57.0 °F 45.0 °F 64% 30.07 in 10.0 mi WNW 5.8 mph - N/A   Clear
4:54 AM 57.0 °F 46.0 °F 67% 30.07 in 10.0 mi West 8.1 mph - N/A   Clear
5:54 AM 54.0 °F 46.9 °F 77% 30.07 in 10.0 mi WSW 6.9 mph - N/A   Clear
6:54 AM 59.0 °F 46.0 °F 62% 30.07 in 10.0 mi West 3.5 mph - N/A   Overcast
7:54 AM 62.1 °F 46.9 °F 58% 30.08 in 10.0 mi NW 3.5 mph - N/A   Overcast
8:54 AM 63.0 °F 48.0 °F 58% 30.09 in 10.0 mi Calm Calm - N/A   Overcast
9:54 AM 61.0 °F 46.0 °F 58% 30.09 in 10.0 mi NE 4.6 mph - N/A   Overcast
10:28 AM 55.9 °F 51.1 °F 84% 30.11 in 2.5 mi NNW 8.1 mph - 0.10 in Rain Heavy Rain
10:37 AM 55.9 °F 51.1 °F 84% 30.10 in 7.0 mi Variable 3.5 mph - 0.11 in Rain Rain
10:54 AM 55.9 °F 52.0 °F 87% 30.10 in 10.0 mi ENE 3.5 mph - 0.13 in Rain Light Rain
11:42 AM 57.9 °F 54.0 °F 87% 30.09 in 10.0 mi Calm Calm - 0.00 in   Overcast
11:54 AM 57.9 °F 54.0 °F 87% 30.10 in 10.0 mi NE 4.6 mph - 0.00 in   Overcast
12:54 PM 55.9 °F 52.0 °F 87% 30.09 in 1.5 mi NE 8.1 mph 26.5 mph 0.04 in Rain Heavy Rain
1:05 PM 55.0 °F 52.0 °F 89% 30.08 in 3.0 mi East 6.9 mph - 0.15 in Rain Rain
1:46 PM 57.0 °F 54.0 °F 89% 30.07 in 10.0 mi ENE 4.6 mph - 0.19 in   Scattered Clouds
1:54 PM 57.9 °F 55.0 °F 90% 30.07 in 10.0 mi NE 4.6 mph - 0.19 in   Mostly Cloudy
2:43 PM 59.0 °F 55.0 °F 87% 30.06 in 10.0 mi ENE 4.6 mph - N/A   Scattered Clouds
2:54 PM 59.0 °F 55.0 °F 87% 30.06 in 10.0 mi East 3.5 mph - N/A   Mostly Cloudy
3:08 PM 60.1 °F 55.0 °F 83% 30.06 in 10.0 mi NE 4.6 mph - N/A   Overcast
3:54 PM 60.1 °F 55.0 °F 83% 30.06 in 10.0 mi Calm Calm - N/A   Overcast
4:54 PM 60.1 °F 55.0 °F 83% 30.06 in 10.0 mi Calm Calm - N/A   Mostly Cloudy
5:54 PM 60.1 °F 55.0 °F 83% 30.07 in 10.0 mi Calm Calm - N/A   Overcast
6:15 PM 59.0 °F 54.0 °F 83% 30.06 in 10.0 mi Calm Calm - N/A   Scattered Clouds
6:54 PM 57.9 °F 55.0 °F 90% 30.07 in 10.0 mi NNW 3.5 mph - N/A   Clear
7:54 PM 57.0 °F 55.0 °F 93% 30.07 in 10.0 mi Calm Calm - N/A   Mostly Cloudy
8:25 PM 57.0 °F 55.0 °F 93% 30.07 in 10.0 mi Calm Calm - N/A   Mostly Cloudy
8:54 PM 55.9 °F 54.0 °F 93% 30.08 in 10.0 mi Calm Calm - N/A   Mostly Cloudy
9:54 PM 57.0 °F 55.0 °F 93% 30.08 in 10.0 mi NNE 3.5 mph - N/A   Overcast
10:36 PM 57.9 °F 55.0 °F 90% 30.08 in 10.0 mi Calm Calm - N/A   Overcast
10:54 PM 57.0 °F 55.9 °F 96% 30.09 in 10.0 mi Calm Calm - N/A   Overcast
11:12 PM 57.0 °F 55.0 °F 93% 30.08 in 10.0 mi Calm Calm - N/A   Overcast
11:54 PM 55.9 °F 55.0 °F 97% 30.08 in 10.0 mi SW 3.5 mph - N/A   Overcast